Flag for Germany Weather past 2 weeks in Wismar, Mecklenburg-Western Pomerania, Germany

Now
59 °F

Fog.


Feels Like: 59 °F
Forecast: 56 / 64 °F
Wind: 1 mph from East

Location: Schwerin

Current Time: Sep 20, 2014 at 10:01:16 AM

Latest Report: Sep 20, 2014 at 9:00 AM


Visibility: 1 mi

Pressure: 29.94 "Hg

Humidity: 98%

Dew point: 58 °F

Location of WismarLocation

Historic Weather in Wismar — Graph

°F

Wismar temperature yesterday

Maximum temperature yesterday: 73 °F (at 3:00 PM)
Minimum temperature yesterday: 53 °F (at 6:00 AM)
Average temperature yesterday: 63 °F

Past Weeks' High & Low Weather Summary

 TemperatureHumidityPressure
High80 °F (Sep 6, 3:00 PM)100% (Sep 8, 6:00 AM)30.23 "Hg (Sep 8, 6:00 AM)
Low50 °F (Sep 11, 7:00 AM)39% (Sep 6, 3:00 PM)29.85 "Hg (Sep 6, 6:00 PM)
Average63 °F80%30.04 "Hg
* Reported Sep 5 9:00 AM — Sep 20 9:00 AM, Wismar, Weather by CustomWeather, © 2014

Note: Actual official high and low records may vary slightly from our data, if they occured in-between our weather recording intervals... More about our weather records

Advertising

Wismar weather history for previous 24 hours

 ConditionsComfort  
Time TempWeatherWind HumidityBarometerVisibility
9:00 AM
Sep 20
59 °FFog.1 mph98%29.94 "Hg1 mi
8:00 AM56 °FFog.1 mph98%29.93 "Hg1 mi
7:00 AM54 °FPartly sunny.1 mph98%29.93 "Hg1 mi
6:00 AM55 °FPassing clouds.1 mph99%29.93 "Hg1 mi
5:00 AM55 °FPassing clouds.1 mph98%29.94 "Hg1 mi
4:00 AM56 °FFog.1 mph98%29.93 "Hg2 mi
3:00 AM57 °FFog.2 mph98%29.94 "Hg2 mi
2:00 AM57 °FFog.1 mph97%29.93 "Hg2 mi
1:00 AM59 °FFog.1 mph95%29.94 "Hg3 mi
12:00 AM59 °FFog.1 mph92%29.94 "Hg3 mi
10:00 PM
Sep 19
64 °FOvercast.1 mph82%29.94 "Hg7 mi
9:00 PM66 °FOvercast.2 mph79%29.93 "Hg7 mi
8:00 PM67 °FOvercast.1 mph74%29.92 "Hg8 mi
7:00 PM71 °FOvercast.2 mph62%29.91 "Hg11 mi
6:00 PM72 °FScattered clouds.3 mph60%29.91 "Hg11 mi
4:00 PM73 °FPartly sunny.2 mph55%29.91 "Hg9 mi
3:00 PM73 °FPartly sunny.2 mph56%29.92 "Hg9 mi
2:00 PM72 °FPartly sunny.2 mph56%29.92 "Hg9 mi
1:00 PM69 °FOvercast.2 mph62%29.93 "Hg9 mi
12:00 PM66 °FOvercast.2 mph66%29.94 "Hg8 mi
10:00 AM61 °FPassing clouds.2 mph76%29.94 "Hg6 mi
Weather by CustomWeather, © 2014

See weather overviewHow to use our weather pages